Fort Irwin/Barstow, Bicycle L, CA

8:17 PM PDT on September 16, 2019 (GMT -0700)
Fort Irwin/Barstow, Bicycle L

Weather History for KBYS - August, 2019

Change the Weather History Date:

Sunday, August 25, 2019

  Actual Average (KDAG) Record (KDAG)
Temperature  
Mean Temperature 88 °F 86 °F  
Max Temperature 102 °F 101 °F 111 °F (1985)
Min Temperature 74 °F 71 °F 58 °F (1954)
Degree Days  
Heating Degree Days 0    
Cooling Degree Days 22    
Growing Degree Days 38 (Base 50)    
Moisture  
Dew Point 41 °F    
Average Humidity 20    
Maximum Humidity 31    
Minimum Humidity 12    
Precipitation  
Precipitation 0.00 in 0.00 in 0.60 in (2000)
Month to date precipitation 0.22  
Year to date precipitation 2.72  
Sea Level Pressure  
Sea Level Pressure 29.87 in    
Wind  
Wind Speed 7 mph (SW)    
Max Wind Speed 16 mph    
Max Gust Speed 18 mph    
Visibility 10 miles    
Events      
T = Trace of Precipitation, MM = Missing Value Source: NWS Daily Summary

Daily Weather History Graph

Daily Weather History Graph

Search for Another Location

Airport or City:

Astronomy

Aug. 25, 2019 Rise Set
Actual Time 6:13 AM PDT 7:23 PM PDT
Civil Twilight 5:47 AM PDT 7:49 PM PDT
Nautical Twilight 5:15 AM PDT 8:20 PM PDT
Astronomical Twilight 4:43 AM PDT 8:52 PM PDT
Moon 12:58 AM PDT (8/25) 3:41 PM PDT (8/25)
Length of Visible Light 14h 01m
Length of Day
13h 09m
Waning Crescent, 28% of the Moon is Illuminated
Aug 25
Waning Crescent
Aug 30
New
Sep 5
First Quarter
Sep 13
Full
Sep 21
Last Quarter

Hourly Weather History & Observations

Time (PDT) Temp. Dew Point Humidity Pressure Visibility Wind Dir Wind Speed Gust Speed Precip Events Conditions
12:58 AM 85.8 °F 36.0 °F 17% 29.88 in 10.0 mi North 5.8 mph - N/A   Clear
1:58 AM 84.2 °F 38.8 °F 20% 29.89 in 10.0 mi West 15.0 mph - N/A   Clear
2:58 AM 81.5 °F 39.7 °F 23% 29.90 in 10.0 mi ESE 4.6 mph - N/A   Clear
3:58 AM 78.8 °F 42.6 °F 28% 29.90 in 10.0 mi WNW 4.6 mph - N/A   Clear
4:58 AM 77.9 °F 41.4 °F 27% 29.91 in 10.0 mi North 4.6 mph - N/A   Clear
5:58 AM 75.7 °F 41.4 °F 29% 29.92 in 10.0 mi NNE 3.5 mph - N/A   Clear
6:58 AM 74.5 °F 41.9 °F 31% 29.94 in 10.0 mi Calm Calm - N/A   Clear
7:58 AM 80.8 °F 44.1 °F 27% 29.95 in 10.0 mi Calm Calm - N/A   Clear
8:58 AM 84.9 °F 46.4 °F 26% 29.95 in 10.0 mi Calm Calm - N/A   Clear
9:58 AM 88.7 °F 47.8 °F 24% 29.94 in 10.0 mi SSE 5.8 mph - N/A   Clear
10:58 AM 93.2 °F 47.1 °F 21% 29.92 in 10.0 mi SSE 11.5 mph - N/A   Clear
11:58 AM 95.4 °F 44.6 °F 17% 29.91 in 10.0 mi SSE 10.4 mph - N/A   Clear
12:58 PM 98.6 °F 38.1 °F 12% 29.88 in 10.0 mi South 6.9 mph - N/A   Clear
2:58 PM 100.4 °F 39.0 °F 12% 29.84 in 10.0 mi SSW 10.4 mph 18.4 mph N/A   Clear
3:58 PM 101.3 °F 39.4 °F 12% 29.82 in 10.0 mi SSW 11.5 mph 18.4 mph N/A   Clear
4:58 PM 101.3 °F 39.4 °F 12% 29.81 in 10.0 mi SW 11.5 mph 17.3 mph N/A   Clear
5:58 PM 101.3 °F 41.4 °F 13% 29.78 in 9.0 mi South 12.7 mph - N/A   Clear
6:58 PM 99.3 °F 39.7 °F 13% 29.78 in 10.0 mi SW 12.7 mph - N/A   Clear
7:58 PM 95.4 °F 38.7 °F 14% 29.78 in 9.0 mi SW 12.7 mph - N/A   Clear
8:58 PM 94.1 °F 39.4 °F 15% 29.80 in 10.0 mi WSW 16.1 mph - N/A   Clear
9:58 PM 91.2 °F 39.4 °F 16% 29.81 in 10.0 mi West 15.0 mph - N/A   Clear
10:58 PM 88.5 °F 42.3 °F 20% 29.81 in 10.0 mi WSW 9.2 mph - N/A   Clear
11:58 PM 87.4 °F 43.2 °F 21% 29.82 in 10.0 mi Calm Calm - N/A   Clear